Weather reports worldwide

Advertisment
Ferrara, Italy (16138): temperature & dewpoint: 09.12.2018 07:00:00 - 15.12.2018 07:00:00 (CET)Ferrara, Italy (16138): wind speed: 09.12.2018 07:00:00 - 15.12.2018 07:00:00 (CET)Ferrara, Italy (16138): wind direction: 09.12.2018 07:00:00 - 15.12.2018 07:00:00 (CET)Ferrara, Italy (16138): reduced air pressure: 09.12.2018 07:00:00 - 15.12.2018 07:00:00 (CET)Ferrara, Italy (16138): visibility: 09.12.2018 07:00:00 - 15.12.2018 07:00:00 (CET)
Date & Time tt [°C] td [°C] ff [km/h] ff [kn] dd ppp [hPa] vv [km]
15.12.2018 07:00:00 - - - - - - -
15.12.2018 06:00:00 - - - - - - -
15.12.2018 05:00:00 - - - - - - -
15.12.2018 04:00:00 - - - - - - -
15.12.2018 03:00:00 - - - - - - -
15.12.2018 02:00:00 - - - - - - -
15.12.2018 01:00:00 - - - - - - -
15.12.2018 00:00:00 - - - - - - -
14.12.2018 23:00:00 - - - - - - -
14.12.2018 22:00:00 - - - - - - -
14.12.2018 21:00:00 - - - - - - -
14.12.2018 20:00:00 - - - - - - -
14.12.2018 19:00:00 2,2 -3,1 0 0 N 1017,0 10
14.12.2018 18:00:00 2,0 -3,0 - - - - 10
14.12.2018 17:00:00 3,0 -3,0 - - - - 10
14.12.2018 16:00:00 5,2 -1,5 0 0 N 1016,2 10
14.12.2018 15:00:00 6,0 -1,0 - - - - 10
14.12.2018 14:00:00 6,0 -1,0 - - - - 10
14.12.2018 13:00:00 5,2 1,5 0 0 N 1016,4 10
14.12.2018 12:00:00 5,0 0,0 - - - - 10
14.12.2018 11:00:00 4,0 -1,0 - - - - 10
14.12.2018 10:00:00 0,4 -2,1 0 0 N 1016,2 10
14.12.2018 09:00:00 -2,0 -4,0 - - - - 10
14.12.2018 08:00:00 -2,0 -4,0 - - - - 10
14.12.2018 07:00:00 -0,2 -3,9 0 0 N 1015,2 10
14.12.2018 06:00:00 - - - - - - -
14.12.2018 05:00:00 - - - - - - -
14.12.2018 04:00:00 - - - - - - -
14.12.2018 03:00:00 - - - - - - -
14.12.2018 02:00:00 - - - - - - -
14.12.2018 01:00:00 - - - - - - -
14.12.2018 00:00:00 - - - - - - -
13.12.2018 23:00:00 - - - - - - -
13.12.2018 22:00:00 - - - - - - -
13.12.2018 21:00:00 - - - - - - -
13.12.2018 20:00:00 - - - - - - -
13.12.2018 19:00:00 3,8 1,2 0 0 N 1015,2 10
13.12.2018 18:00:00 4,0 1,0 - - - - 10
13.12.2018 17:00:00 4,0 1,0 - - - - 10
13.12.2018 16:00:00 4,0 0,9 0 0 N 1015,2 10
13.12.2018 15:00:00 4,0 1,0 13 7 NNE - 10
13.12.2018 14:00:00 4,0 2,0 - - - - 8
13.12.2018 13:00:00 3,2 1,3 0 0 N 1016,0 8
13.12.2018 12:00:00 3,0 1,0 11 6 ENE - 10
13.12.2018 11:00:00 3,0 1,0 8 4 E - 10
13.12.2018 10:00:00 2,2 0,7 5 3 NNE 1016,3 10
13.12.2018 09:00:00 1,0 -1,0 - - - - 10
13.12.2018 08:00:00 0,0 -3,0 - - - - 10
13.12.2018 07:00:00 0,0 -3,2 0 0 N 1016,2 10
13.12.2018 06:00:00 - - - - - - -
13.12.2018 05:00:00 - - - - - - -
13.12.2018 04:00:00 - - - - - - -
13.12.2018 03:00:00 - - - - - - -
13.12.2018 02:00:00 - - - - - - -
13.12.2018 01:00:00 - - - - - - -
13.12.2018 00:00:00 - - - - - - -
12.12.2018 23:00:00 - - - - - - -
12.12.2018 22:00:00 - - - - - - -
12.12.2018 21:00:00 - - - - - - -
12.12.2018 20:00:00 - - - - - - -
12.12.2018 19:00:00 -0,8 -4,7 0 0 N 1019,0 20
12.12.2018 18:00:00 1,0 -3,0 0 0 N - 10
12.12.2018 17:00:00 3,0 -3,0 - - - - 10
12.12.2018 16:00:00 6,2 -1,9 0 0 N 1019,3 20
12.12.2018 15:00:00 8,0 -2,0 - - - - 10
12.12.2018 14:00:00 7,0 -3,0 0 0 N - 10
12.12.2018 13:00:00 6,2 -2,4 0 0 N 1020,0 20
12.12.2018 12:00:00 5,0 -2,0 4 2 NNW - 10
12.12.2018 11:00:00 4,0 -3,0 4 2 W - 10
12.12.2018 10:00:00 2,2 -2,7 5 3 W 1020,4 20
12.12.2018 09:00:00 -4,0 -6,0 0 0 N - 10
12.12.2018 08:00:00 -6,0 -8,0 0 0 N - 10
12.12.2018 07:00:00 -5,0 -6,8 0 0 N 1019,8 30
12.12.2018 06:00:00 - - - - - - -
12.12.2018 05:00:00 - - - - - - -
12.12.2018 04:00:00 - - - - - - -
12.12.2018 03:00:00 - - - - - - -
12.12.2018 02:00:00 - - - - - - -
12.12.2018 01:00:00 - - - - - - -
12.12.2018 00:00:00 - - - - - - -
11.12.2018 23:00:00 - - - - - - -
11.12.2018 22:00:00 - - - - - - -
11.12.2018 21:00:00 - - - - - - -
11.12.2018 20:00:00 - - - - - - -
11.12.2018 19:00:00 1,0 -2,9 0 0 N 1018,9 30
11.12.2018 18:00:00 3,0 -2,0 0 0 N - 10
11.12.2018 17:00:00 7,0 -1,0 - - - - 10
11.12.2018 16:00:00 8,6 0,6 0 0 N 1018,6 30
11.12.2018 15:00:00 10,0 1,0 5 3 NE - 10
11.12.2018 14:00:00 10,0 2,0 9 5 W - 10
11.12.2018 13:00:00 7,4 1,3 11 6 WSW 1018,9 20
11.12.2018 12:00:00 5,0 0,0 8 4 WSW - 10
11.12.2018 11:00:00 5,0 0,0 9 5 WSW - 10
11.12.2018 10:00:00 3,6 -0,4 0 0 N 1018,6 30
11.12.2018 09:00:00 0,0 -3,0 - - - - 10
11.12.2018 08:00:00 0,0 -4,0 - - - - 10
11.12.2018 07:00:00 0,2 -3,2 0 0 N 1017,3 20
11.12.2018 06:00:00 - - - - - - -
11.12.2018 05:00:00 - - - - - - -
11.12.2018 04:00:00 - - - - - - -
11.12.2018 03:00:00 - - - - - - -
11.12.2018 02:00:00 - - - - - - -
11.12.2018 01:00:00 - - - - - - -
11.12.2018 00:00:00 - - - - - - -
10.12.2018 23:00:00 - - - - - - -
10.12.2018 22:00:00 - - - - - - -
10.12.2018 21:00:00 - - - - - - -
10.12.2018 20:00:00 - - - - - - -
10.12.2018 19:00:00 5,0 -0,2 0 0 N 1015,7 10
10.12.2018 18:00:00 7,0 1,0 - - - - 10
10.12.2018 17:00:00 9,0 2,0 - - - - 10
10.12.2018 16:00:00 10,6 2,7 5 3 SW 1015,5 30
10.12.2018 15:00:00 11,0 3,0 13 7 W - 10
10.12.2018 14:00:00 10,0 3,0 9 5 W - 10
10.12.2018 13:00:00 9,8 1,7 21 11 W 1014,9 50
10.12.2018 12:00:00 10,0 3,0 18 10 W - 10
10.12.2018 11:00:00 10,0 3,0 22 12 W - 10
10.12.2018 10:00:00 7,6 1,9 0 0 N 1014,1 60
10.12.2018 09:00:00 5,0 1,0 - - - - 10
10.12.2018 08:00:00 4,0 1,0 - - - - 10
10.12.2018 07:00:00 5,2 1,1 0 0 N 1011,3 10
10.12.2018 06:00:00 - - - - - - -
10.12.2018 05:00:00 - - - - - - -
10.12.2018 04:00:00 - - - - - - -
10.12.2018 03:00:00 - - - - - - -
10.12.2018 02:00:00 - - - - - - -
10.12.2018 01:00:00 - - - - - - -
10.12.2018 00:00:00 - - - - - - -
09.12.2018 23:00:00 - - - - - - -
09.12.2018 22:00:00 - - - - - - -
09.12.2018 21:00:00 - - - - - - -
09.12.2018 20:00:00 - - - - - - -
09.12.2018 19:00:00 2,8 2,5 0 0 N 1008,3 0,2
09.12.2018 18:00:00 3,0 3,0 - - - - 0,1
09.12.2018 17:00:00 4,0 4,0 - - - - 0,1
09.12.2018 16:00:00 5,4 4,7 0 0 N 1007,7 0,2
09.12.2018 15:00:00 6,0 5,0 5 3 W - 0,2
09.12.2018 14:00:00 10,0 8,0 9 5 W - 4,0
09.12.2018 13:00:00 8,8 7,6 5 3 SSE 1006,7 6
09.12.2018 12:00:00 7,0 7,0 0 0 N - 1,5
09.12.2018 11:00:00 5,0 5,0 0 0 N - 0,5
09.12.2018 10:00:00 4,0 3,9 0 0 N 1007,6 0,2
09.12.2018 09:00:00 3,0 3,0 - - - - 0,1
09.12.2018 08:00:00 1,0 1,0 - - - - 0,1
09.12.2018 07:00:00 -0,8 -0,8 0 0 N 1008,8 0,2

tt = temperature
td = dewpoint
ff = wind speed
dd = wind direction
ppp = reduced air pressure
vv = visibility

Next stations